Regional Weather Roundup
Issued by NWS

Home | Current Version | Previous Version | Text Only | Print | Product List | Glossary On
Versions: 1 2 3 4 5 6 7 8 9 10 11 12 13 14 15 16 17 18 19 20 21 22 23 24 25 26 27 28 29 30 31 32 33 34 35 36 37 38 39 40 41 42 43 44 45 46 47 48 49 50
000
ASUS43 KLMK 260602
RWRKY
KENTUCKY REGIONAL WEATHER ROUNDUP
NATIONAL WEATHER SERVICE LOUISVILLE KY
100 AM EST FRI DEC 26 2014

NOTE "FAIR" INDICATES FEW OR NO CLOUDS BELOW 12,000 FEET
WITH NO SIGNIFICANT WEATHER AND/OR OBSTRUCTIONS TO VISIBILITY.

KYZ001>023-026-027-061>063-070>075-260700-
WESTERN AND SOUTH CENTRAL KENTUCKY

CITY           SKY/WX    TMP DP  RH WIND       PRES   REMARKS
PADUCAH        PTCLDY    43  34  70 VRB7      30.13S
HENDERSON      MOCLDY    37  30  75 S7        30.15R WCI  32
OWENSBORO      PTCLDY    39  34  82 S9        30.18R WCI  33
HOPKINSVILLE   CLEAR     37  33  85 SE6       30.18S WCI  32
BOWLING GREEN  CLEAR     32  28  85 CALM      30.21S
GLASGOW        NOT AVBL
$$

KYZ024-025-028>034-038-045-046-053-260700-
NORTH CENTRAL KENTUCKY

CITY           SKY/WX    TMP DP  RH WIND       PRES   REMARKS
LOUISVILLE/SDF PTCLDY    34  31  88 SE6       30.18F WCI  29
LOUISVILLE/LOU CLEAR     35  30  82 CALM      30.18F
FORT KNOX      CLEAR     35  31  87 S8        30.16F WCI  28
$$

KYZ035>037-039>044-047>052-055>060-089>105-260700-
NORTHEAST KENTUCKY

CITY           SKY/WX    TMP DP  RH WIND       PRES   REMARKS
LEXINGTON      CLEAR     31  29  92 SE8       30.20R WCI  23
COVINGTON      CLEAR     29  24  82 SE6       30.17S WCI  23
FRANKFORT      CLEAR     32  29  88 SE6       30.18F WCI  26
$$

KYZ054-064>069-076>088-106>120-260700-
SOUTHEAST KENTUCKY

CITY           SKY/WX    TMP DP  RH WIND       PRES   REMARKS
JACKSON        CLEAR     35  29  78 S5        30.21R WCI  31
LONDON         CLEAR     31  25  78 CALM      30.22R
SOMERSET       NOT AVBL
MIDDLESBORO    CLEAR     29  29  99 CALM      30.26S
MONTICELLO     CLEAR     27  26  96 CALM      30.24S
$$




USA.gov is the U.S. government's official web portal to all federal, state and local government web resources and services.